Home > Weather > Whitby > Past weeks

Flag for Canada Weather for the Past 2 Weeks in Whitby, Ontario, Canada

Now
41 °F

Passing clouds.


Feels Like: 41 °F
Forecast: 38 / 55 °F
Wind: No wind

Location: Toronto Buttonville

Current Time: May 3, 2016 at 5:52:44 AM

Latest Report: May 3, 2016 at 5:00 AM


Visibility: 15 mi

Pressure: 29.95 "Hg

Humidity: 87%

Dew Point: 37 °F

Location of WhitbyLocation

Historic Weather in Whitby — Graph

°F

Whitby Temperature Yesterday

Maximum temperature yesterday: 55 °F (at 5:00 PM)
Minimum temperature yesterday: 41 °F (at 6:00 AM)
Average temperature yesterday: 46 °F

High & Low Weather Summary for the Past Weeks

 TemperatureHumidityPressure
High75 °F (Apr 18, 2:00 PM)94% (Apr 21, 11:00 PM)30.38 "Hg (Apr 21, 11:00 PM)
Low32 °F (Apr 27, 4:00 AM)13% (Apr 20, 5:00 PM)29.74 "Hg (Apr 26, 5:00 AM)
Average46 °F58%30.08 "Hg
* Reported Apr 18 4:00 AM — May 3 4:00 AM, Whitby, Weather by CustomWeather, © 2016

Note: Actual official high and low records may vary slightly from our data, if they occured in-between our weather recording intervals... More about our weather records

Advertising

Whitby Weather History for the Previous 24 Hours

Scroll right to see more
 ConditionsComfort  
Time TempWeatherWind HumidityBarometerVisibility
4:00 AM
Tue, May 3
41 °FPassing clouds.2 mph87%29.97 "Hg15 mi
3:00 AM43 °FPassing clouds.2 mph87%29.98 "Hg15 mi
2:00 AM41 °FPassing clouds.3 mph87%29.98 "Hg15 mi
1:00 AM41 °FPassing clouds.No wind87%29.98 "Hg15 mi
12:00 AM43 °FPassing clouds.No wind81%29.98 "Hg15 mi
11:00 PM
Mon, May 2
45 °FPassing clouds.No wind76%30.00 "Hg15 mi
10:00 PM46 °FPassing clouds.3 mph76%30.01 "Hg15 mi
9:00 PM46 °FPartly sunny.5 mph76%30.01 "Hg15 mi
8:00 PM50 °FPartly sunny.7 mph67%30.01 "Hg15 mi
7:00 PM50 °FBroken clouds.9 mph67%29.99 "Hg15 mi
6:00 PM54 °FBroken clouds.9 mph67%29.99 "Hg15 mi
5:00 PM55 °FPartly sunny.7 mph59%29.98 "Hg15 mi
4:00 PM52 °FPartly sunny.9 mph62%29.99 "Hg15 mi
3:00 PM50 °FPartly sunny.8 mph67%30.00 "Hg15 mi
2:00 PM50 °FPartly sunny.7 mph67%30.01 "Hg15 mi
1:00 PM48 °FOvercast.8 mph71%30.02 "Hg15 mi
12:00 PM46 °FOvercast.9 mph76%30.02 "Hg15 mi
11:00 AM45 °FOvercast.8 mph81%30.02 "Hg15 mi
10:00 AM43 °FPartly sunny.10 mph81%29.99 "Hg15 mi
9:00 AM41 °FBroken clouds.15 mph87%29.99 "Hg15 mi
8:00 AM41 °FBroken clouds.9 mph87%30.00 "Hg15 mi
7:00 AM41 °FMostly cloudy.7 mph87%30.02 "Hg15 mi
6:00 AM41 °FPartly cloudy.5 mph87%30.00 "Hg15 mi
5:00 AM43 °FPassing clouds.3 mph87%29.98 "Hg15 mi
Weather by CustomWeather, © 2016

See weather overviewHow to use our weather pages